ICEYE-X5 (44389 NORAD) Tracking and Keplerian Element Data

This shows tracking and keplerian element data for the satellite.

Feedback or suggestion? Click here.




ElementValue
Catalog44389
NameICEYE-X5
Epoch Orbit427
Epoch Day214.91839973
Epoch Year2019
RAAN176.5239
Inclination97.6842
Eccentricity0.0022106
Argument of Perigee137.27
Mean Anonmoly223.0245
Mean Motion14.96436442
Decay Rate4.71E-06
L11 44389U 19038C 19214.91839973 .00000471 00000-0 46436-4 0 9994
L22 44389 97.6842 176.5239 0022106 137.2700 223.0245 14.96436442 4274

Live tracking and technical data element details for ICEYE-X5 (NORAD 44389). ICEYE-X5 can be tracked NOW for your location showing map with azimuth and elevation plus other details from your city location.

Track the satellite on the map from your city or location and see movement details for azimuth, elevation, latitude, longitude, range, height, and movement on the map or in text.







IsCatalogInMostPopularTable: catalog: 44389, numindb: 51
Update: records affected: 1



GetName: 44389 ICEYE-X5

Hit Count: updated at: Tue, 22 Oct 2019 23:30:16 GMT